Regional Weather Roundup
Issued by NWS

Home | Current Version | Previous Version | Graphics & Text | Print | Product List | Glossary On
Versions: 1 2 3 4 5 6 7 8 9 10 11 12 13 14 15 16 17 18 19 20 21 22 23 24 25 26 27 28 29 30 31 32 33 34 35 36 37 38 39 40 41 42 43 44 45 46 47 48 49 50
000
ASUS45 KBOU 190907
RWRCO

WEATHER ROUNDUP FOR COLORADO
NATIONAL WEATHER SERVICE DENVER/BOULDER CO
300 AM MDT SUN APR 19 2015

NOTE: "FAIR" INDICATES FEW OR NO CLOUDS BELOW 12000 FEET WITH NO
SIGNIFICANT WEATHER AND/OR OBSTRUCTIONS TO VISIBILITY.

COZ001>005-013-030-031-191000-
...NORTHWEST COLORADO...

CITY           SKY/WX    TMP DP  RH WIND       PRES   REMARKS
CRAIG          CLOUDY    35  32  88 W3        30.12R
HAYDEN         CLOUDY    34  28  80 W3        30.11R
MEEKER         CLOUDY    35  31  85 CALM      30.12S
MOUNT WERNER   NOT AVBL
STEAMBOAT SPGS CLOUDY    32  31  97 CALM      30.10S
WALDEN         CLOUDY    30  25  80 N13       30.11S WCI  20
$$

COZ006>008-011-191000-
...WEST CENTRAL VALLEYS...

CITY           SKY/WX    TMP DP  RH WIND       PRES   REMARKS
GRAND JUNCTION PTCLDY    34  34 100 SE3       30.09F
MONTROSE       CLOUDY    35  35 100 CALM      30.12R
EAGLE          CLOUDY    36  36 100 E3        30.12S
RIFLE          FOG       33  31  92 SE6       30.12R VSB 1/4 WCI  28
DELTA          CLOUDY    38  38  97 CALM      30.13R
NUCLA          PTCLDY    36  32  87 SE8       30.11S
$$

COZ017>023-064>068-191000-
...SOUTHWEST COLORADO...

CITY           SKY/WX    TMP DP  RH WIND       PRES   REMARKS
DURANGO        PTCLDY    34  25  69 NE7       30.00R WCI  28
CORTEZ         CLEAR     35  32  88 SE7       30.05S WCI  29
PAGOSA SPRINGS PTCLDY    33  23  67 CALM      30.03R
TELLURIDE      MOCLDY    30  28  92 W8        30.11S WCI  23
WOLF CREEK PAS PTCLDY    19  16  86 NE18G26   30.11R WCI   4
$$

COZ009-010-012-014-032>034-037-058>063-191000-
...CENTRAL COLORADO...

CITY           SKY/WX    TMP DP  RH WIND       PRES   REMARKS
ASPEN          CLOUDY    31  31 100 CALM      30.09S
BUENA VISTA    PTCLDY    29  20  67 S3        30.07R
COPPER MTN     CLOUDY    23  18  80 W14       30.11R WCI  11
BERTHOUD PASS  CLOUDY    14   7  73 NW9       30.11S WCI   2
COTTONWOOD PAS PTCLDY    32  16  51 W7        30.08R WCI  26
GUNNISON       PTCLDY    28  21  74 CALM      30.10S
KREMMLING      CLOUDY    34  32  93 CALM      30.10S
LEADVILLE      CLOUDY    24  18  77 N9        30.08S WCI  14
SALIDA         PTCLDY    30  25  79 NW5       30.15R WCI  25
SUNLIGHT       PTCLDY   N/A N/A N/A NE5       30.16F
WILKERSON PASS CLOUDY    19  16  86 N16G25    30.08F WCI   5
$$

COZ069>075-191000-
...SAN LUIS VALLEY/SANGRE DE CRISTO MOUNTAINS...

CITY           SKY/WX    TMP DP  RH WIND       PRES   REMARKS
ALAMOSA        CLEAR     33  25  72 N12       30.02S WCI  24
LA VETA PASS   CLOUDY    27  19  74 S6        30.05R WCI  20
SAGUACHE       PTCLDY    32  27  80 N9        30.05F WCI  24
$$

COZ035-036-038>040-191000-
...NORTHERN COLORADO FRONT RANGE...

CITY           SKY/WX    TMP DP  RH WIND       PRES   REMARKS
DENVER INTL AP CLOUDY    40  35  83 N25G36    30.04R
DMNS CITY PARK   N/A     40  33  76 NE17G25   30.07R
AURORA         LGT RAIN  38  37  99 N24G36    30.05R
FRONT RANGE AP CLOUDY    41  36  81 NW24G32   30.04R
ERIE MUNI ARPT CLOUDY    42  35  78 N16G23    30.07R
BOULDER MUN AP CLOUDY    41  36  81 N8        30.07R
CENTENNIAL     LGT RAIN  37  36  96 N23G33    30.05R
BROOMFIELD     CLOUDY    41  34  75 N14G26    30.07R
FORT COLLINS   CLOUDY    43  30  61 N26G37    30.09R
LONGMONT       CLOUDY    46  34  64 N15G26    30.09R
$$

COZ041-046-047-076>085-087-088-191000-
...PIKES PEAK/PALMER DIVIDE AND SOUTHERN FOOTHILLS...

CITY           SKY/WX    TMP DP  RH WIND       PRES   REMARKS
COLO. SPRINGS  LGT RAIN  40  33  76 NW18G30   29.99S
A. F. ACADEMY  LGT SNOW  35  33  92 NW21G30   29.99R FOG     WCI  24
ELLICOTT       MIX PCPN N/A N/A N/A N22G33    29.95S
FALCON         DRIZZLE   36  34  93 N22G32    29.99R
FORT CARSON    CLOUDY    41  32  71 N22G32    29.97R
LIMON          LGT RAIN  39  37  92 N30G38    29.94R
MONUMENT HILL  LGT RAIN  32  32 100 N28G38    30.01R WCI  18
TRINIDAD       CLOUDY    37  33  85 W7        29.98S
$$

COZ042>045-048>051-090-091-191000-
...NORTHEAST COLORADO...

CITY           SKY/WX    TMP DP  RH WIND       PRES   REMARKS
GREELEY ARPT   CLOUDY    43  30  61 N26G32    30.06R
AKRON          LGT RAIN  41  40  96 N30G39    29.95R
BURLINGTON     LGT RAIN  43  40  89 N16       29.87R
WRAY           RAIN      46  46 100 N13G21    29.90R
STERLING       CLOUDY    45  37  76 NE18G32   29.97R
HOLYOKE        DRIZZLE   46  43  87 N18G25    29.92R
FORT MORGAN    CLOUDY    43  35  74 N28G37    29.99R
$$

COZ086-089-092>099-191000-
...SOUTHEAST COLORADO...

CITY           SKY/WX    TMP DP  RH WIND       PRES   REMARKS
PUEBLO         CLOUDY    47  33  58 N24G33    29.97R
LA JUNTA       LGT RAIN  45  40  82 NW28G35   29.91R
LAMAR          LGT RAIN  43  41  93 NW10      29.83F
SPRINGFIELD      N/A     38  37  97 NW14      29.85F
$$


USA.gov is the U.S. government's official web portal to all federal, state and local government web resources and services.